Precipitable_Water
0.52 0.53 0.52 0.51 0.50 0.50 0.50 0.51 0.50 0.49 0.48 0.48 0.48 0.47 0.47 0.47 0.46 0.46 0.46 0.46 0.45 0.45 0.44 0.43 0.43 0.42 0.41 0.40 0.41 0.40 0.40 0.32 0.28 0.29 0.27 0.29 0.35 0.37 0.37 0.38 0.36 0.37 0.38 0.35 0.34 0.30 0.26 0.28 0.28 0.32 0.30 0.28 0.29 0.26 0.37 0.31 0.32 0.29 0.21 0.18 0.15 0.18 0.17 0.24 0.23 0.25 0.24 0.20 0.21 0.23 0.24 0.23 0.21 0.24 0.27 0.30 0.25 0.23 0.22 0.20 0.21 0.25 0.25 0.26 0.27 0.30 0.34 0.37
0.53 0.52 0.52 0.52 0.51 0.51 0.50 0.50 0.51 0.50 0.50 0.49 0.49 0.48 0.48 0.48 0.47 0.46 0.46 0.46 0.45 0.44 0.43 0.44 0.42 0.41 0.41 0.39 0.39 0.40 0.36 0.30 0.26 0.26 0.29 0.48 0.45 0.38 0.39 0.37 0.37 0.36 0.38 0.32 0.29 0.26 0.25 0.26 0.28 0.30 0.28 0.24 0.37 0.28 0.36 0.29 0.34 0.24 0.22 0.20 0.16 0.19 0.21 0.24 0.23 0.25 0.24 0.21 0.21 0.21 0.23 0.23 0.22 0.23 0.26 0.23 0.22 0.23 0.21 0.19 0.20 0.19 0.22 0.26 0.29 0.31 0.36 0.36
0.54 0.53 0.52 0.51 0.52 0.51 0.51 0.51 0.51 0.51 0.50 0.49 0.49 0.49 0.49 0.48 0.48 0.47 0.47 0.47 0.46 0.45 0.44 0.43 0.43 0.42 0.39 0.39 0.40 0.40 0.35 0.29 0.28 0.27 0.41 0.51 0.42 0.39 0.38 0.38 0.37 0.38 0.34 0.31 0.31 0.29 0.27 0.28 0.29 0.29 0.27 0.24 0.33 0.27 0.33 0.31 0.33 0.29 0.22 0.17 0.18 0.23 0.26 0.27 0.28 0.28 0.29 0.26 0.23 0.23 0.24 0.23 0.23 0.23 0.25 0.22 0.23 0.25 0.21 0.19 0.19 0.20 0.21 0.25 0.28 0.30 0.32 0.35
0.55 0.54 0.53 0.52 0.51 0.51 0.51 0.52 0.52 0.51 0.51 0.51 0.50 0.50 0.50 0.49 0.49 0.49 0.48 0.48 0.47 0.47 0.45 0.45 0.44 0.43 0.42 0.40 0.42 0.42 0.37 0.30 0.25 0.29 0.40 0.42 0.41 0.38 0.39 0.38 0.39 0.37 0.36 0.36 0.35 0.31 0.32 0.30 0.28 0.29 0.25 0.24 0.26 0.31 0.29 0.33 0.26 0.30 0.26 0.19 0.20 0.24 0.21 0.23 0.27 0.29 0.29 0.28 0.26 0.25 0.26 0.23 0.23 0.25 0.25 0.24 0.23 0.23 0.23 0.23 0.22 0.21 0.22 0.23 0.24 0.24 0.26 0.28
0.55 0.54 0.53 0.53 0.52 0.52 0.52 0.53 0.53 0.53 0.53 0.52 0.52 0.52 0.51 0.51 0.50 0.49 0.49 0.48 0.48 0.48 0.48 0.47 0.46 0.46 0.44 0.44 0.42 0.46 0.31 0.20 0.25 0.32 0.41 0.42 0.42 0.43 0.41 0.41 0.41 0.39 0.38 0.37 0.35 0.33 0.32 0.28 0.27 0.27 0.25 0.21 0.25 0.27 0.28 0.32 0.33 0.28 0.25 0.29 0.28 0.28 0.24 0.25 0.27 0.29 0.31 0.31 0.28 0.27 0.25 0.24 0.28 0.27 0.26 0.26 0.23 0.21 0.23 0.24 0.24 0.23 0.23 0.25 0.25 0.25 0.26 0.26
0.56 0.55 0.54 0.54 0.53 0.54 0.55 0.55 0.55 0.56 0.55 0.55 0.55 0.55 0.54 0.53 0.53 0.52 0.52 0.51 0.51 0.51 0.51 0.51 0.50 0.47 0.47 0.45 0.44 0.44 0.28 0.13 0.31 0.41 0.45 0.47 0.47 0.47 0.45 0.44 0.43 0.42 0.39 0.35 0.31 0.31 0.29 0.27 0.26 0.24 0.23 0.23 0.22 0.20 0.25 0.31 0.37 0.26 0.30 0.30 0.31 0.31 0.28 0.32 0.34 0.33 0.33 0.31 0.29 0.27 0.28 0.29 0.27 0.26 0.26 0.26 0.25 0.26 0.29 0.29 0.28 0.27 0.27 0.28 0.29 0.28 0.26 0.25
0.58 0.57 0.56 0.55 0.55 0.57 0.58 0.58 0.58 0.58 0.58 0.58 0.58 0.59 0.58 0.58 0.57 0.57 0.56 0.56 0.55 0.56 0.55 0.55 0.53 0.51 0.48 0.45 0.50 0.35 0.26 0.25 0.32 0.50 0.48 0.51 0.48 0.47 0.47 0.47 0.44 0.42 0.40 0.34 0.32 0.31 0.31 0.29 0.29 0.26 0.26 0.26 0.27 0.27 0.29 0.29 0.30 0.30 0.27 0.31 0.28 0.28 0.26 0.28 0.28 0.31 0.33 0.32 0.29 0.31 0.34 0.30 0.28 0.25 0.28 0.26 0.28 0.29 0.30 0.30 0.28 0.27 0.27 0.27 0.28 0.29 0.28 0.27
0.61 0.60 0.59 0.60 0.61 0.62 0.61 0.62 0.63 0.63 0.63 0.64 0.64 0.64 0.63 0.63 0.62 0.61 0.60 0.60 0.59 0.59 0.60 0.58 0.58 0.55 0.53 0.46 0.38 0.32 0.30 0.26 0.41 0.57 0.51 0.51 0.50 0.49 0.49 0.47 0.43 0.43 0.40 0.35 0.36 0.34 0.36 0.33 0.31 0.33 0.30 0.27 0.28 0.28 0.29 0.30 0.31 0.28 0.30 0.34 0.34 0.34 0.33 0.33 0.35 0.34 0.34 0.33 0.34 0.34 0.32 0.30 0.31 0.29 0.31 0.28 0.29 0.28 0.30 0.31 0.30 0.28 0.27 0.27 0.27 0.26 0.26 0.27
0.66 0.65 0.64 0.66 0.68 0.67 0.68 0.68 0.69 0.69 0.69 0.70 0.70 0.69 0.69 0.69 0.68 0.67 0.66 0.66 0.66 0.66 0.66 0.66 0.64 0.63 0.63 0.53 0.40 0.31 0.28 0.43 0.55 0.62 0.59 0.52 0.49 0.50 0.50 0.41 0.48 0.44 0.42 0.43 0.44 0.42 0.40 0.38 0.37 0.37 0.31 0.31 0.34 0.31 0.34 0.31 0.28 0.33 0.32 0.33 0.33 0.34 0.35 0.34 0.32 0.32 0.32 0.33 0.33 0.33 0.32 0.33 0.32 0.34 0.30 0.30 0.30 0.30 0.31 0.31 0.32 0.31 0.29 0.28 0.27 0.26 0.25 0.25
0.72 0.71 0.71 0.72 0.72 0.74 0.73 0.74 0.74 0.74 0.74 0.74 0.74 0.74 0.74 0.75 0.74 0.74 0.73 0.74 0.73 0.73 0.72 0.72 0.72 0.68 0.60 0.52 0.45 0.30 0.56 0.69 0.70 0.73 0.68 0.62 0.57 0.54 0.53 0.53 0.50 0.49 0.46 0.45 0.47 0.44 0.41 0.41 0.41 0.46 0.43 0.37 0.38 0.34 0.36 0.34 0.31 0.36 0.35 0.35 0.33 0.34 0.33 0.34 0.32 0.32 0.32 0.31 0.32 0.30 0.31 0.32 0.36 0.34 0.28 0.34 0.34 0.34 0.33 0.32 0.32 0.32 0.32 0.33 0.33 0.32 0.30 0.29
0.79 0.76 0.77 0.79 0.77 0.78 0.78 0.77 0.77 0.77 0.78 0.78 0.79 0.79 0.80 0.80 0.80 0.80 0.79 0.79 0.79 0.79 0.79 0.78 0.79 0.73 0.59 0.59 0.43 0.34 0.64 0.66 0.71 0.73 0.71 0.69 0.63 0.58 0.55 0.61 0.59 0.54 0.51 0.51 0.48 0.50 0.48 0.46 0.48 0.47 0.42 0.37 0.38 0.35 0.36 0.36 0.39 0.37 0.36 0.35 0.34 0.34 0.34 0.33 0.33 0.32 0.33 0.32 0.34 0.34 0.33 0.35 0.36 0.35 0.32 0.34 0.35 0.35 0.33 0.33 0.33 0.33 0.33 0.34 0.35 0.35 0.36 0.35
0.81 0.81 0.81 0.81 0.82 0.81 0.81 0.82 0.83 0.84 0.86 0.87 0.87 0.87 0.87 0.86 0.85 0.83 0.82 0.80 0.79 0.80 0.79 0.77 0.75 0.70 0.62 0.52 0.44 0.46 0.68 0.73 0.77 0.72 0.70 0.74 0.68 0.70 0.71 0.69 0.65 0.60 0.58 0.51 0.53 0.55 0.55 0.53 0.50 0.44 0.33 0.42 0.33 0.37 0.35 0.39 0.38 0.37 0.36 0.30 0.31 0.32 0.31 0.33 0.33 0.34 0.35 0.33 0.36 0.37 0.33 0.32 0.33 0.31 0.35 0.35 0.35 0.34 0.34 0.33 0.33 0.33 0.34 0.34 0.34 0.35 0.35 0.35
0.85 0.85 0.87 0.87 0.88 0.88 0.87 0.88 0.90 0.92 0.92 0.92 0.92 0.91 0.90 0.88 0.86 0.84 0.82 0.79 0.79 0.79 0.78 0.77 0.74 0.69 0.59 0.41 0.46 0.63 0.71 0.76 0.78 0.75 0.73 0.76 0.71 0.72 0.71 0.69 0.67 0.66 0.64 0.58 0.57 0.61 0.61 0.56 0.51 0.42 0.44 0.40 0.37 0.32 0.39 0.39 0.37 0.37 0.35 0.32 0.30 0.30 0.30 0.35 0.36 0.35 0.34 0.34 0.37 0.36 0.25 0.28 0.32 0.34 0.35 0.35 0.33 0.33 0.32 0.32 0.33 0.33 0.33 0.34 0.34 0.34 0.34 0.35
0.91 0.91 0.92 0.93 0.93 0.93 0.93 0.93 0.95 0.96 0.97 0.96 0.96 0.94 0.92 0.90 0.87 0.84 0.84 0.82 0.82 0.82 0.82 0.80 0.78 0.68 0.58 0.43 0.54 0.66 0.72 0.76 0.73 0.71 0.69 0.69 0.65 0.63 0.67 0.68 0.68 0.66 0.67 0.62 0.62 0.61 0.60 0.58 0.52 0.48 0.49 0.42 0.37 0.45 0.38 0.37 0.38 0.31 0.33 0.34 0.29 0.28 0.27 0.35 0.35 0.35 0.34 0.37 0.37 0.35 0.26 0.28 0.32 0.33 0.34 0.34 0.34 0.33 0.32 0.32 0.32 0.33 0.33 0.34 0.34 0.34 0.34 0.35
0.95 0.95 0.98 0.97 0.98 0.98 0.97 0.98 0.99 1.00 1.00 1.00 0.98 0.96 0.93 0.89 0.88 0.86 0.86 0.83 0.85 0.84 0.81 0.82 0.78 0.64 0.49 0.47 0.64 0.70 0.73 0.73 0.63 0.65 0.71 0.64 0.63 0.59 0.61 0.64 0.63 0.64 0.63 0.63 0.60 0.59 0.58 0.55 0.51 0.44 0.40 0.46 0.45 0.39 0.34 0.33 0.34 0.34 0.30 0.27 0.31 0.29 0.30 0.35 0.39 0.37 0.33 0.35 0.37 0.34 0.26 0.28 0.30 0.32 0.33 0.34 0.34 0.33 0.32 0.33 0.34 0.35 0.36 0.36 0.36 0.35 0.35 0.36
0.97 0.97 0.98 0.98 0.98 0.98 0.99 1.01 1.02 1.02 1.03 1.02 0.99 0.97 0.95 0.91 0.89 0.89 0.87 0.85 0.83 0.85 0.83 0.67 0.66 0.65 0.51 0.43 0.55 0.74 0.64 0.55 0.59 0.70 0.72 0.70 0.66 0.59 0.64 0.61 0.62 0.60 0.60 0.57 0.60 0.58 0.55 0.54 0.44 0.44 0.43 0.44 0.40 0.36 0.33 0.32 0.32 0.34 0.31 0.28 0.29 0.32 0.32 0.34 0.39 0.39 0.39 0.37 0.36 0.33 0.27 0.29 0.29 0.32 0.33 0.35 0.34 0.34 0.34 0.34 0.35 0.36 0.36 0.37 0.37 0.37 0.37 0.38
1.02 1.02 1.01 1.01 1.01 1.00 1.01 1.03 1.03 1.04 1.04 1.03 1.01 0.99 0.95 0.93 0.93 0.91 0.90 0.88 0.85 0.88 0.85 0.68 0.69 0.60 0.42 0.58 0.71 0.56 0.54 0.62 0.70 0.68 0.66 0.68 0.66 0.66 0.62 0.58 0.55 0.56 0.58 0.57 0.56 0.54 0.52 0.47 0.49 0.46 0.45 0.40 0.40 0.37 0.31 0.28 0.29 0.31 0.35 0.31 0.33 0.31 0.33 0.32 0.39 0.42 0.41 0.38 0.33 0.33 0.29 0.28 0.30 0.32 0.34 0.36 0.37 0.37 0.37 0.37 0.37 0.38 0.38 0.38 0.37 0.37 0.39 0.42
1.05 1.05 1.03 1.03 1.03 1.04 1.05 1.06 1.07 1.07 1.07 1.06 1.02 1.01 0.94 0.98 0.97 0.95 0.88 0.87 0.89 0.85 0.81 0.82 0.70 0.57 0.50 0.62 0.48 0.51 0.62 0.60 0.64 0.64 0.64 0.65 0.66 0.63 0.58 0.52 0.55 0.53 0.52 0.50 0.53 0.46 0.50 0.43 0.46 0.39 0.40 0.40 0.39 0.36 0.30 0.26 0.30 0.31 0.32 0.32 0.32 0.34 0.34 0.32 0.32 0.37 0.37 0.35 0.32 0.31 0.29 0.29 0.31 0.34 0.35 0.37 0.40 0.40 0.39 0.39 0.39 0.40 0.39 0.39 0.39 0.42 0.43 0.43
1.05 1.05 1.04 1.05 1.06 1.07 1.09 1.10 1.10 1.11 1.11 1.09 1.06 1.05 1.03 1.01 0.97 0.93 0.85 0.77 0.69 0.62 0.53 0.55 0.57 0.43 0.41 0.52 0.59 0.61 0.64 0.65 0.67 0.64 0.57 0.61 0.64 0.64 0.60 0.58 0.54 0.49 0.44 0.44 0.46 0.48 0.49 0.45 0.45 0.40 0.36 0.38 0.37 0.37 0.34 0.34 0.36 0.34 0.34 0.32 0.32 0.30 0.30 0.30 0.33 0.36 0.35 0.32 0.31 0.31 0.28 0.30 0.32 0.33 0.36 0.39 0.41 0.40 0.39 0.41 0.41 0.41 0.39 0.39 0.42 0.43 0.44 0.45
1.16 1.15 1.13 1.15 1.15 1.15 1.16 1.16 1.16 1.15 1.15 1.07 1.03 0.99 0.94 0.79 0.75 0.69 0.74 0.73 0.64 0.63 0.63 0.62 0.62 0.61 0.61 0.61 0.60 0.72 0.75 0.75 0.62 0.70 0.70 0.72 0.68 0.63 0.59 0.58 0.55 0.54 0.48 0.42 0.45 0.47 0.49 0.39 0.37 0.36 0.38 0.39 0.41 0.41 0.39 0.39 0.39 0.37 0.36 0.34 0.32 0.32 0.31 0.34 0.34 0.36 0.37 0.33 0.31 0.32 0.32 0.32 0.33 0.35 0.38 0.41 0.42 0.40 0.40 0.40 0.40 0.40 0.40 0.42 0.42 0.43 0.44 0.46
1.24 1.23 1.22 1.23 1.24 1.24 1.24 1.23 1.23 1.21 1.20 1.12 1.04 0.89 0.67 0.68 0.58 0.56 0.68 0.72 0.76 0.75 0.70 0.70 0.69 0.62 0.60 0.68 0.72 0.69 0.63 0.65 0.70 0.69 0.73 0.79 0.73 0.66 0.59 0.61 0.55 0.48 0.49 0.50 0.46 0.52 0.49 0.38 0.38 0.41 0.42 0.42 0.42 0.43 0.42 0.41 0.40 0.37 0.35 0.33 0.32 0.33 0.30 0.34 0.33 0.36 0.38 0.33 0.32 0.34 0.33 0.33 0.35 0.38 0.41 0.42 0.41 0.40 0.40 0.39 0.40 0.41 0.43 0.43 0.43 0.44 0.45 0.46
1.28 1.28 1.29 1.29 1.30 1.29 1.28 1.27 1.26 1.26 1.23 1.15 1.03 0.84 0.82 0.85 0.88 0.91 0.80 0.59 0.73 0.80 0.80 0.78 0.81 0.74 0.80 0.80 0.81 0.80 0.73 0.63 0.63 0.70 0.80 0.81 0.71 0.63 0.60 0.60 0.54 0.48 0.53 0.51 0.50 0.46 0.42 0.38 0.42 0.46 0.48 0.47 0.45 0.44 0.43 0.40 0.37 0.37 0.34 0.33 0.32 0.32 0.34 0.35 0.36 0.39 0.38 0.36 0.32 0.34 0.32 0.34 0.38 0.41 0.42 0.42 0.41 0.41 0.42 0.42 0.42 0.42 0.42 0.43 0.44 0.44 0.45 0.45
1.30 1.32 1.33 1.33 1.31 1.31 1.31 1.32 1.30 1.27 1.17 1.06 0.95 0.92 0.89 1.00 1.05 1.05 0.94 0.77 0.67 0.79 0.77 0.76 0.72 0.74 0.76 0.84 0.81 0.83 0.67 0.63 0.61 0.71 0.75 0.79 0.68 0.68 0.62 0.56 0.54 0.53 0.53 0.51 0.44 0.43 0.38 0.42 0.47 0.50 0.49 0.45 0.44 0.43 0.42 0.40 0.39 0.36 0.34 0.32 0.30 0.33 0.31 0.28 0.36 0.38 0.38 0.36 0.33 0.35 0.33 0.35 0.40 0.42 0.40 0.41 0.41 0.42 0.43 0.44 0.44 0.44 0.42 0.43 0.44 0.45 0.44 0.44
1.34 1.34 1.34 1.33 1.35 1.34 1.37 1.36 1.34 1.24 1.15 1.08 1.03 1.01 1.10 1.13 1.10 1.05 0.88 0.68 0.63 0.73 0.79 0.81 0.80 0.79 0.77 0.74 0.82 0.80 0.70 0.69 0.71 0.67 0.82 0.76 0.64 0.69 0.63 0.57 0.54 0.54 0.49 0.50 0.48 0.45 0.42 0.48 0.54 0.51 0.49 0.46 0.43 0.43 0.41 0.38 0.35 0.37 0.36 0.35 0.33 0.34 0.35 0.35 0.35 0.39 0.40 0.39 0.39 0.38 0.35 0.34 0.39 0.37 0.38 0.40 0.41 0.41 0.42 0.44 0.43 0.44 0.44 0.45 0.46 0.45 0.45 0.43
1.39 1.38 1.39 1.38 1.37 1.40 1.38 1.36 1.20 1.16 1.19 1.13 1.08 1.18 1.19 1.19 1.12 1.07 0.84 0.70 0.68 0.67 0.88 0.83 0.86 0.82 0.82 0.91 0.87 0.73 0.73 0.73 0.71 0.75 0.77 0.76 0.66 0.63 0.60 0.65 0.58 0.50 0.52 0.53 0.50 0.46 0.45 0.52 0.55 0.50 0.48 0.46 0.43 0.39 0.39 0.38 0.34 0.35 0.38 0.38 0.38 0.38 0.37 0.39 0.40 0.37 0.34 0.33 0.39 0.37 0.29 0.28 0.36 0.37 0.36 0.38 0.42 0.39 0.41 0.41 0.40 0.42 0.42 0.43 0.42 0.42 0.44 0.44
1.46 1.44 1.43 1.41 1.41 1.41 1.42 1.16 1.15 1.24 1.15 1.09 1.14 1.22 1.23 1.21 1.15 1.07 0.84 0.60 0.48 0.63 0.77 0.61 0.82 0.65 0.85 0.70 0.74 0.72 0.71 0.59 0.72 0.76 0.78 0.79 0.80 0.67 0.60 0.56 0.58 0.48 0.51 0.51 0.49 0.48 0.47 0.52 0.51 0.46 0.44 0.42 0.41 0.39 0.41 0.41 0.35 0.33 0.35 0.45 0.44 0.41 0.40 0.39 0.38 0.37 0.30 0.27 0.36 0.41 0.29 0.23 0.33 0.32 0.34 0.37 0.39 0.36 0.39 0.40 0.40 0.40 0.40 0.41 0.41 0.42 0.43 0.43
1.51 1.49 1.48 1.47 1.46 1.47 1.22 1.06 1.31 1.27 1.04 1.11 1.26 1.28 1.25 1.20 1.18 1.04 0.73 0.53 0.44 0.67 0.62 0.74 0.69 0.67 0.71 0.63 0.63 0.67 0.43 0.49 0.69 0.71 0.70 0.76 0.66 0.75 0.55 0.52 0.55 0.56 0.55 0.53 0.47 0.41 0.48 0.47 0.46 0.45 0.43 0.41 0.39 0.37 0.42 0.42 0.37 0.33 0.42 0.46 0.44 0.42 0.40 0.39 0.38 0.35 0.32 0.37 0.38 0.39 0.36 0.27 0.24 0.29 0.34 0.38 0.36 0.34 0.35 0.37 0.38 0.38 0.39 0.40 0.40 0.42 0.43 0.42
1.52 1.51 1.50 1.50 1.50 1.46 1.28 1.33 1.27 1.14 1.12 1.25 1.31 1.27 1.25 1.21 1.14 1.04 0.70 0.38 0.35 0.69 0.56 0.63 0.64 0.76 0.68 0.62 0.63 0.53 0.50 0.61 0.49 0.56 0.66 0.70 0.68 0.62 0.57 0.51 0.48 0.47 0.49 0.46 0.33 0.45 0.45 0.43 0.44 0.41 0.41 0.39 0.38 0.41 0.47 0.46 0.40 0.40 0.47 0.47 0.43 0.41 0.39 0.38 0.36 0.34 0.34 0.32 0.26 0.31 0.36 0.27 0.23 0.28 0.34 0.37 0.34 0.33 0.34 0.36 0.36 0.37 0.38 0.40 0.39 0.41 0.43 0.43
1.50 1.51 1.51 1.52 1.52 1.51 1.49 1.34 1.25 1.15 1.29 1.34 1.33 1.28 1.26 1.16 1.04 0.79 0.57 0.36 0.53 0.56 0.70 0.55 0.76 0.66 0.60 0.60 0.54 0.52 0.49 0.51 0.44 0.53 0.62 0.65 0.67 0.58 0.47 0.50 0.50 0.48 0.48 0.46 0.38 0.43 0.48 0.48 0.48 0.47 0.43 0.39 0.44 0.48 0.49 0.48 0.41 0.48 0.48 0.47 0.44 0.42 0.40 0.38 0.35 0.33 0.33 0.29 0.22 0.28 0.33 0.25 0.22 0.29 0.30 0.35 0.34 0.31 0.33 0.36 0.35 0.36 0.38 0.39 0.39 0.40 0.43 0.44
1.48 1.48 1.50 1.51 1.49 1.42 1.39 1.42 1.28 1.35 1.38 1.37 1.32 1.29 1.24 1.09 0.84 0.58 0.44 0.30 0.55 0.46 0.57 0.59 0.56 0.52 0.56 0.49 0.48 0.50 0.46 0.48 0.50 0.54 0.57 0.53 0.57 0.60 0.56 0.57 0.50 0.47 0.45 0.47 0.44 0.45 0.46 0.51 0.53 0.48 0.45 0.47 0.48 0.49 0.50 0.50 0.49 0.49 0.47 0.41 0.39 0.38 0.37 0.37 0.36 0.34 0.31 0.23 0.23 0.29 0.32 0.30 0.23 0.27 0.31 0.32 0.34 0.33 0.34 0.36 0.36 0.37 0.37 0.38 0.40 0.42 0.44 0.45
1.45 1.46 1.47 1.50 1.31 1.36 1.35 1.17 1.30 1.40 1.38 1.36 1.34 1.25 1.13 0.91 0.63 0.47 0.33 0.46 0.61 0.59 0.63 0.56 0.53 0.60 0.52 0.48 0.44 0.50 0.50 0.51 0.51 0.52 0.49 0.54 0.52 0.54 0.53 0.49 0.53 0.46 0.44 0.44 0.43 0.46 0.47 0.48 0.47 0.49 0.52 0.50 0.50 0.45 0.48 0.49 0.47 0.43 0.38 0.36 0.34 0.32 0.36 0.34 0.33 0.34 0.24 0.21 0.26 0.33 0.33 0.34 0.23 0.26 0.31 0.34 0.35 0.34 0.34 0.34 0.35 0.36 0.37 0.37 0.40 0.42 0.45 0.47
1.40 1.40 1.41 1.38 1.36 1.41 1.16 1.10 1.33 1.40 1.36 1.35 1.27 1.08 0.90 0.57 0.64 0.41 0.39 0.68 0.45 0.56 0.55 0.53 0.57 0.55 0.52 0.54 0.51 0.49 0.47 0.50 0.52 0.50 0.48 0.49 0.48 0.47 0.48 0.41 0.44 0.36 0.35 0.38 0.37 0.46 0.41 0.42 0.46 0.48 0.51 0.47 0.43 0.40 0.42 0.44 0.43 0.39 0.37 0.35 0.28 0.25 0.26 0.22 0.27 0.22 0.23 0.21 0.28 0.32 0.35 0.30 0.28 0.31 0.35 0.37 0.35 0.33 0.34 0.34 0.35 0.36 0.37 0.38 0.40 0.41 0.45 0.47
1.33 1.32 1.35 1.35 1.35 1.28 1.31 1.36 1.38 1.35 1.35 1.30 1.14 1.00 0.70 0.52 0.36 0.47 0.50 0.55 0.48 0.61 0.56 0.62 0.55 0.55 0.54 0.51 0.49 0.52 0.54 0.47 0.53 0.50 0.52 0.52 0.48 0.48 0.51 0.49 0.49 0.43 0.32 0.37 0.36 0.34 0.35 0.43 0.45 0.46 0.47 0.48 0.45 0.35 0.36 0.34 0.39 0.37 0.33 0.31 0.26 0.21 0.19 0.18 0.20 0.24 0.24 0.28 0.33 0.30 0.33 0.25 0.28 0.30 0.33 0.33 0.35 0.36 0.37 0.38 0.38 0.38 0.38 0.38 0.39 0.41 0.43 0.44
1.27 1.28 1.24 1.28 1.28 1.29 1.31 1.34 1.33 1.33 1.25 1.19 0.99 0.79 0.64 0.43 0.40 0.59 0.54 0.55 0.57 0.66 0.62 0.57 0.56 0.56 0.55 0.49 0.54 0.54 0.47 0.54 0.52 0.50 0.51 0.48 0.48 0.44 0.48 0.51 0.52 0.48 0.45 0.41 0.36 0.35 0.29 0.29 0.38 0.42 0.37 0.49 0.44 0.40 0.39 0.37 0.36 0.34 0.36 0.31 0.26 0.25 0.21 0.18 0.19 0.18 0.19 0.21 0.27 0.32 0.24 0.21 0.20 0.24 0.34 0.37 0.39 0.39 0.40 0.40 0.41 0.40 0.39 0.39 0.40 0.43 0.43 0.43
1.25 1.24 1.23 1.22 1.22 1.26 1.28 1.30 1.30 1.31 1.20 1.03 0.81 0.65 0.45 0.41 0.50 0.49 0.52 0.57 0.62 0.64 0.59 0.64 0.56 0.53 0.50 0.52 0.56 0.56 0.54 0.48 0.55 0.52 0.51 0.48 0.45 0.47 0.45 0.47 0.51 0.52 0.49 0.39 0.42 0.39 0.35 0.33 0.40 0.48 0.46 0.46 0.40 0.45 0.46 0.42 0.39 0.40 0.39 0.40 0.32 0.29 0.33 0.24 0.25 0.25 0.25 0.25 0.24 0.25 0.23 0.26 0.25 0.35 0.36 0.38 0.37 0.37 0.37 0.36 0.37 0.36 0.38 0.40 0.40 0.41 0.43 0.45
1.16 1.13 1.17 1.09 1.11 1.20 1.27 1.28 1.26 1.23 1.08 0.88 0.66 0.51 0.43 0.49 0.47 0.58 0.55 0.66 0.64 0.57 0.58 0.60 0.57 0.49 0.48 0.49 0.55 0.53 0.60 0.50 0.54 0.52 0.50 0.49 0.48 0.43 0.46 0.46 0.46 0.48 0.42 0.35 0.37 0.31 0.33 0.29 0.44 0.46 0.49 0.45 0.44 0.46 0.45 0.45 0.28 0.38 0.37 0.31 0.33 0.42 0.37 0.30 0.30 0.31 0.31 0.28 0.23 0.26 0.25 0.26 0.31 0.34 0.33 0.34 0.34 0.35 0.36 0.37 0.38 0.39 0.41 0.42 0.42 0.43 0.45 0.45
1.05 1.09 0.98 1.04 1.07 1.21 1.26 1.28 1.25 1.16 1.03 0.81 0.60 0.45 0.52 0.56 0.61 0.62 0.66 0.61 0.62 0.62 0.57 0.46 0.48 0.47 0.45 0.44 0.48 0.51 0.54 0.54 0.50 0.47 0.40 0.47 0.41 0.44 0.43 0.45 0.50 0.48 0.46 0.41 0.36 0.40 0.29 0.28 0.41 0.39 0.37 0.45 0.47 0.46 0.45 0.45 0.43 0.37 0.29 0.32 0.39 0.44 0.38 0.31 0.23 0.25 0.24 0.20 0.21 0.23 0.19 0.20 0.21 0.18 0.31 0.31 0.31 0.33 0.35 0.37 0.39 0.41 0.43 0.43 0.43 0.44 0.44 0.45
1.01 1.00 0.98 0.98 1.08 1.19 1.24 1.26 1.21 1.09 0.93 0.73 0.53 0.51 0.64 0.53 0.66 0.64 0.70 0.65 0.63 0.62 0.53 0.48 0.50 0.54 0.46 0.45 0.45 0.50 0.52 0.45 0.46 0.46 0.40 0.45 0.37 0.48 0.43 0.42 0.51 0.48 0.47 0.49 0.37 0.40 0.40 0.28 0.32 0.37 0.39 0.43 0.46 0.42 0.39 0.43 0.45 0.35 0.31 0.40 0.27 0.23 0.23 0.29 0.28 0.20 0.19 0.18 0.20 0.23 0.22 0.21 0.19 0.19 0.27 0.28 0.30 0.31 0.34 0.37 0.38 0.39 0.41 0.42 0.43 0.44 0.45 0.47
0.98 0.93 0.81 0.95 1.13 1.17 1.18 1.23 1.12 0.96 0.79 0.60 0.52 0.50 0.59 0.62 0.70 0.66 0.69 0.67 0.65 0.60 0.51 0.53 0.49 0.55 0.53 0.47 0.49 0.53 0.51 0.42 0.48 0.45 0.39 0.43 0.37 0.47 0.45 0.49 0.47 0.49 0.48 0.47 0.40 0.41 0.43 0.29 0.29 0.38 0.37 0.40 0.40 0.36 0.25 0.30 0.37 0.40 0.41 0.35 0.40 0.33 0.27 0.24 0.25 0.26 0.25 0.18 0.18 0.18 0.21 0.18 0.21 0.25 0.27 0.27 0.31 0.33 0.36 0.37 0.38 0.39 0.40 0.41 0.43 0.44 0.45 0.45
0.87 0.79 0.73 1.03 1.13 1.15 1.15 1.11 0.94 0.85 0.70 0.53 0.56 0.58 0.69 0.60 0.65 0.71 0.73 0.69 0.63 0.59 0.56 0.54 0.58 0.52 0.55 0.53 0.54 0.48 0.53 0.50 0.47 0.45 0.44 0.44 0.41 0.49 0.44 0.51 0.45 0.45 0.46 0.47 0.41 0.46 0.34 0.41 0.24 0.32 0.38 0.36 0.25 0.29 0.24 0.26 0.26 0.30 0.31 0.30 0.33 0.32 0.39 0.35 0.33 0.26 0.22 0.20 0.20 0.18 0.17 0.19 0.24 0.31 0.28 0.28 0.31 0.34 0.35 0.35 0.35 0.36 0.39 0.42 0.43 0.44 0.44 0.44
0.87 0.74 0.73 1.00 1.07 1.11 1.08 0.94 0.74 0.62 0.59 0.63 0.66 0.63 0.66 0.61 0.65 0.68 0.72 0.74 0.69 0.76 0.63 0.60 0.58 0.54 0.55 0.53 0.52 0.57 0.51 0.51 0.49 0.45 0.45 0.44 0.43 0.37 0.54 0.48 0.50 0.43 0.48 0.43 0.39 0.40 0.33 0.33 0.24 0.26 0.24 0.22 0.23 0.33 0.37 0.36 0.36 0.35 0.36 0.31 0.31 0.28 0.25 0.22 0.19 0.29 0.25 0.23 0.19 0.18 0.16 0.21 0.28 0.34 0.33 0.34 0.36 0.35 0.37 0.38 0.40 0.41 0.42 0.44 0.45 0.46 0.46 0.45
0.70 0.56 0.64 0.95 1.01 1.00 0.83 0.63 0.62 0.67 0.62 0.55 0.54 0.62 0.59 0.70 0.64 0.65 0.67 0.71 0.68 0.64 0.73 0.64 0.63 0.59 0.57 0.55 0.55 0.54 0.51 0.48 0.48 0.45 0.45 0.39 0.45 0.41 0.51 0.54 0.50 0.49 0.41 0.36 0.37 0.48 0.40 0.37 0.29 0.23 0.24 0.24 0.27 0.33 0.39 0.41 0.39 0.38 0.38 0.33 0.36 0.34 0.32 0.26 0.18 0.18 0.23 0.24 0.26 0.24 0.20 0.20 0.30 0.34 0.35 0.36 0.36 0.38 0.40 0.42 0.42 0.43 0.44 0.44 0.45 0.45 0.46 0.44
0.63 0.55 0.86 0.92 0.96 0.88 0.68 0.53 0.55 0.55 0.53 0.56 0.65 0.65 0.66 0.64 0.59 0.63 0.60 0.63 0.57 0.62 0.59 0.57 0.55 0.54 0.57 0.54 0.53 0.50 0.49 0.43 0.42 0.39 0.41 0.41 0.40 0.44 0.48 0.49 0.50 0.48 0.45 0.40 0.42 0.45 0.44 0.33 0.27 0.28 0.32 0.32 0.32 0.33 0.37 0.37 0.34 0.31 0.32 0.33 0.30 0.26 0.28 0.25 0.23 0.26 0.22 0.21 0.18 0.20 0.19 0.24 0.35 0.39 0.39 0.40 0.40 0.41 0.42 0.43 0.43 0.43 0.43 0.43 0.42 0.42 0.43 0.42
0.60 0.61 0.65 0.85 0.91 0.83 0.58 0.41 0.40 0.45 0.47 0.52 0.55 0.53 0.61 0.57 0.56 0.54 0.52 0.57 0.53 0.52 0.49 0.50 0.53 0.55 0.49 0.54 0.50 0.43 0.47 0.34 0.41 0.37 0.36 0.39 0.38 0.49 0.48 0.47 0.48 0.43 0.40 0.40 0.33 0.49 0.31 0.32 0.31 0.23 0.22 0.21 0.21 0.24 0.27 0.35 0.35 0.31 0.29 0.33 0.34 0.34 0.33 0.34 0.33 0.32 0.24 0.24 0.23 0.21 0.16 0.22 0.35 0.43 0.42 0.40 0.40 0.41 0.42 0.44 0.44 0.42 0.41 0.40 0.39 0.38 0.38 0.38
0.59 0.65 0.66 0.71 0.82 0.74 0.46 0.44 0.40 0.39 0.41 0.41 0.44 0.44 0.47 0.52 0.56 0.54 0.53 0.51 0.57 0.53 0.51 0.48 0.50 0.51 0.46 0.47 0.43 0.44 0.45 0.38 0.32 0.39 0.37 0.37 0.36 0.48 0.47 0.46 0.47 0.41 0.45 0.47 0.42 0.44 0.32 0.29 0.25 0.17 0.13 0.10 0.09 0.08 0.10 0.16 0.24 0.29 0.31 0.29 0.31 0.29 0.28 0.26 0.21 0.23 0.20 0.25 0.26 0.24 0.22 0.28 0.37 0.38 0.36 0.38 0.38 0.38 0.39 0.39 0.38 0.37 0.34 0.33 0.32 0.30 0.30 0.29
0.52 0.41 0.55 0.58 0.67 0.63 0.54 0.53 0.44 0.37 0.36 0.38 0.38 0.40 0.43 0.42 0.49 0.53 0.53 0.49 0.52 0.50 0.49 0.48 0.49 0.48 0.41 0.39 0.35 0.34 0.35 0.41 0.34 0.31 0.32 0.31 0.37 0.40 0.41 0.43 0.42 0.40 0.42 0.42 0.42 0.40 0.31 0.30 0.27 0.24 0.20 0.16 0.17 0.19 0.24 0.26 0.26 0.22 0.22 0.23 0.23 0.24 0.25 0.24 0.23 0.19 0.15 0.18 0.19 0.18 0.18 0.19 0.22 0.24 0.26 0.29 0.33 0.32 0.30 0.28 0.27 0.27 0.26 0.25 0.25 0.25 0.25 0.25
0.53 0.40 0.43 0.39 0.54 0.52 0.44 0.47 0.41 0.39 0.32 0.37 0.30 0.35 0.33 0.38 0.41 0.45 0.51 0.39 0.46 0.41 0.42 0.41 0.40 0.36 0.34 0.34 0.32 0.31 0.33 0.32 0.37 0.33 0.30 0.29 0.35 0.38 0.43 0.41 0.41 0.41 0.41 0.39 0.41 0.36 0.29 0.23 0.22 0.23 0.24 0.23 0.23 0.22 0.21 0.22 0.20 0.21 0.20 0.18 0.18 0.18 0.19 0.18 0.16 0.13 0.19 0.18 0.13 0.15 0.17 0.17 0.17 0.17 0.18 0.19 0.23 0.25 0.25 0.23 0.22 0.22 0.23 0.23 0.23 0.24 0.24 0.23
0.36 0.40 0.44 0.47 0.35 0.31 0.34 0.34 0.35 0.34 0.37 0.37 0.31 0.34 0.30 0.30 0.33 0.29 0.41 0.42 0.43 0.43 0.33 0.37 0.37 0.38 0.36 0.32 0.32 0.27 0.29 0.29 0.31 0.27 0.31 0.33 0.33 0.39 0.36 0.40 0.34 0.37 0.36 0.33 0.38 0.29 0.24 0.18 0.19 0.20 0.21 0.22 0.23 0.22 0.22 0.21 0.20 0.19 0.18 0.17 0.15 0.15 0.16 0.14 0.15 0.19 0.20 0.15 0.11 0.13 0.13 0.12 0.13 0.15 0.17 0.18 0.18 0.18 0.20 0.20 0.21 0.22 0.22 0.23 0.23 0.22 0.21 0.21
0.41 0.37 0.41 0.50 0.37 0.38 0.33 0.31 0.33 0.34 0.33 0.36 0.33 0.32 0.28 0.28 0.27 0.33 0.34 0.35 0.36 0.35 0.37 0.27 0.29 0.33 0.35 0.36 0.34 0.28 0.28 0.22 0.22 0.28 0.26 0.28 0.28 0.29 0.26 0.28 0.31 0.33 0.30 0.28 0.29 0.30 0.22 0.18 0.17 0.17 0.15 0.14 0.14 0.14 0.16 0.16 0.16 0.16 0.14 0.14 0.13 0.12 0.11 0.12 0.14 0.15 0.15 0.15 0.17 0.16 0.16 0.16 0.16 0.15 0.17 0.20 0.21 0.20 0.22 0.23 0.23 0.23 0.23 0.23 0.22 0.22 0.21 0.21
0.36 0.35 0.34 0.48 0.45 0.39 0.35 0.33 0.33 0.34 0.30 0.35 0.31 0.31 0.31 0.31 0.28 0.33 0.37 0.34 0.30 0.32 0.39 0.31 0.30 0.32 0.33 0.33 0.32 0.27 0.29 0.29 0.25 0.21 0.27 0.24 0.24 0.24 0.23 0.24 0.23 0.28 0.29 0.23 0.24 0.27 0.21 0.15 0.19 0.18 0.15 0.12 0.13 0.14 0.16 0.16 0.15 0.13 0.14 0.14 0.14 0.13 0.14 0.15 0.14 0.13 0.15 0.15 0.14 0.14 0.15 0.14 0.17 0.20 0.21 0.22 0.22 0.22 0.22 0.23 0.23 0.23 0.22 0.21 0.21 0.20 0.19 0.19
0.43 0.44 0.43 0.34 0.32 0.34 0.32 0.32 0.31 0.31 0.30 0.32 0.30 0.29 0.33 0.33 0.29 0.33 0.35 0.41 0.33 0.29 0.32 0.29 0.30 0.30 0.30 0.29 0.28 0.28 0.33 0.30 0.30 0.29 0.29 0.27 0.20 0.29 0.23 0.25 0.27 0.22 0.24 0.21 0.23 0.21 0.20 0.15 0.16 0.15 0.10 0.09 0.09 0.10 0.12 0.14 0.15 0.14 0.12 0.11 0.10 0.11 0.11 0.11 0.12 0.15 0.15 0.13 0.15 0.16 0.15 0.15 0.18 0.21 0.21 0.21 0.21 0.20 0.19 0.19 0.20 0.20 0.20 0.20 0.18 0.17 0.16 0.15
0.41 0.41 0.38 0.32 0.22 0.27 0.24 0.29 0.30 0.30 0.24 0.27 0.28 0.29 0.27 0.28 0.31 0.33 0.28 0.37 0.37 0.38 0.35 0.33 0.32 0.28 0.29 0.28 0.26 0.29 0.33 0.32 0.31 0.33 0.33 0.34 0.34 0.32 0.31 0.29 0.27 0.22 0.21 0.19 0.23 0.18 0.17 0.15 0.12 0.12 0.10 0.09 0.09 0.12 0.15 0.16 0.14 0.12 0.10 0.09 0.11 0.13 0.14 0.15 0.17 0.17 0.16 0.16 0.14 0.12 0.12 0.16 0.19 0.22 0.19 0.19 0.20 0.19 0.18 0.18 0.18 0.18 0.18 0.18 0.16 0.15 0.15 0.16
Wind_Speed
12 11 11 11 11 11 11 11 11 11 11 11 11 11 11 11 12 12 12 12 12 12 13 13 13 14 14 14 14 15 15 15 15 15 15 15 13 12 12 11 11 11 11 12 12 12 12 12 12 12 12 13 13 13 13 13 13 13 13 13 14 13 13 13 13 14 14 15 15 15 16 16 17 16 15 15 15 16 17 18 17 16 16 16 17 17 15 14
13 13 13 13 12 12 12 12 12 12 12 12 12 12 13 13 13 13 13 14 14 14 14 15 15 15 15 16 16 16 17 16 17 17 17 15 13 12 12 12 12 12 12 13 13 13 13 13 13 13 14 14 14 13 13 13 13 14 14 14 15 14 14 15 16 16 16 17 18 18 18 18 17 18 16 15 16 17 17 18 18 17 17 17 17 17 16 15
14 14 14 14 13 13 13 13 13 13 13 13 14 14 14 14 15 15 15 15 15 16 16 16 16 17 17 17 17 17 17 18 17 16 15 13 12 12 12 13 13 14 14 14 14 14 15 15 14 14 15 15 15 14 14 14 14 15 15 15 15 16 16 17 18 17 17 18 18 18 18 18 18 19 18 17 18 18 17 18 18 18 17 17 17 17 17 16
15 15 15 15 15 15 15 15 15 15 15 15 15 15 15 16 16 16 16 16 17 17 17 17 17 18 18 18 18 18 18 18 16 14 13 12 12 13 14 15 15 15 15 15 15 16 16 16 15 15 16 16 16 15 15 14 14 15 15 16 16 17 18 18 19 19 18 18 18 18 18 19 19 19 19 18 18 17 18 18 18 19 19 19 19 19 19 18
16 16 16 16 16 16 16 16 16 16 16 16 17 17 17 17 17 18 18 18 18 18 18 18 19 19 19 19 19 18 18 17 15 14 14 14 14 15 16 16 16 16 16 16 16 16 16 16 16 16 16 16 17 16 16 16 15 16 16 17 18 19 19 19 21 19 17 18 18 19 19 19 19 19 19 18 18 18 19 20 21 22 22 22 21 21 20 20
17 17 17 17 17 17 17 17 17 18 18 18 18 18 19 19 19 19 19 19 19 20 20 20 20 20 20 20 19 18 17 16 16 16 16 16 17 18 18 18 17 16 16 16 16 16 16 16 16 16 16 16 17 17 17 18 16 17 18 19 20 20 20 20 21 19 18 19 19 19 19 20 20 20 20 20 21 21 21 22 22 23 23 23 22 21 21 21
19 19 19 19 19 19 19 19 19 19 19 19 20 20 20 20 20 21 21 21 21 21 21 21 21 21 21 20 19 19 18 19 19 19 18 19 19 19 18 18 17 16 16 17 16 16 16 17 17 17 17 17 18 18 18 19 18 18 19 20 21 22 22 22 21 20 20 20 21 20 20 21 21 21 21 21 23 23 23 23 23 24 24 24 23 22 22 22
21 20 21 21 20 20 20 20 20 21 21 21 21 21 22 22 22 22 22 22 22 22 22 22 22 22 21 20 20 19 19 20 20 19 19 19 19 18 18 17 17 16 17 17 17 17 17 18 18 18 18 18 19 19 19 19 19 20 20 20 21 22 22 22 21 21 21 22 22 21 21 22 22 22 22 23 24 24 23 23 23 23 23 23 23 23 23 22
22 22 22 22 22 22 21 22 22 22 22 22 22 22 22 23 23 23 23 23 23 23 23 23 23 22 22 21 20 20 19 20 20 19 19 18 18 18 17 17 17 17 18 18 18 18 18 18 19 19 19 19 20 20 20 20 20 20 21 21 21 22 22 23 23 23 23 23 22 22 22 22 23 23 22 22 24 24 22 22 22 22 22 23 23 23 23 23
23 23 23 23 22 22 22 22 22 22 22 22 22 22 23 23 23 23 23 24 24 24 24 23 23 23 22 21 20 19 19 19 19 19 19 18 18 18 18 18 18 19 19 19 19 19 20 20 20 19 20 20 20 21 21 21 20 20 22 23 23 23 24 24 25 26 25 25 24 23 22 23 23 22 21 22 23 23 22 21 21 22 22 22 23 23 24 24
23 23 23 23 22 22 22 22 22 22 22 22 22 22 23 23 23 23 23 23 23 23 23 23 22 22 21 21 20 19 19 19 19 19 19 19 19 19 19 19 19 20 20 21 20 21 21 21 21 20 20 19 20 22 22 21 21 21 22 24 24 25 25 25 26 26 24 23 23 22 23 24 22 21 22 24 24 23 23 23 22 22 22 23 23 24 24 25
23 23 23 22 22 22 22 22 22 22 22 22 22 23 23 23 23 23 23 23 23 23 23 22 22 21 21 21 21 21 20 20 20 20 20 20 20 20 20 20 21 21 21 21 21 21 21 21 21 21 21 21 21 22 21 21 22 22 22 24 25 25 25 25 25 25 23 21 19 19 22 23 21 21 23 25 23 23 24 23 23 23 23 24 24 24 24 25
23 23 22 22 22 22 22 22 22 22 22 22 23 23 23 23 24 23 23 23 23 23 22 22 22 22 21 21 21 22 22 22 22 22 22 22 21 21 21 21 21 21 21 21 21 21 21 21 22 22 23 23 22 22 22 22 22 22 23 24 25 24 23 24 23 21 20 19 16 18 22 23 22 22 23 22 22 23 24 23 23 24 24 24 24 24 24 24
23 23 23 22 22 22 22 22 22 23 23 23 23 24 24 24 24 24 24 24 24 23 23 22 22 22 22 22 21 22 22 22 22 22 23 22 22 22 22 22 21 22 22 22 22 22 22 22 22 23 23 23 23 23 23 23 23 23 23 23 23 23 22 22 20 17 17 19 17 18 22 24 23 23 23 22 23 24 24 24 24 24 24 24 24 24 24 24
24 24 23 23 23 23 23 23 23 24 24 24 24 25 25 25 25 24 24 24 24 24 23 23 23 23 23 23 22 22 23 23 23 22 23 23 22 22 22 22 22 22 22 22 22 23 23 23 22 22 23 22 22 23 23 23 22 22 23 23 22 22 22 22 20 17 17 20 19 19 22 24 23 24 24 24 25 25 25 25 25 26 25 25 24 24 24 23
24 24 24 24 24 24 24 24 24 25 25 25 25 26 26 25 25 25 25 24 24 23 23 23 24 24 24 23 22 22 22 22 23 23 23 23 23 22 22 22 22 23 23 23 24 24 23 23 22 22 23 22 21 22 23 23 23 22 22 23 23 22 23 22 20 18 18 19 21 22 23 24 24 25 25 25 25 25 25 26 27 27 26 25 25 25 24 21
25 25 25 25 25 25 25 25 25 26 26 26 26 26 26 25 25 25 25 24 24 23 24 24 24 24 25 24 23 23 22 23 23 23 23 23 23 22 22 22 22 22 23 23 23 23 22 23 22 22 23 22 21 22 23 23 23 22 22 23 24 23 23 22 21 20 19 20 23 24 25 25 25 25 26 25 25 26 26 27 27 26 26 25 24 23 20 19
26 26 26 26 26 26 26 26 26 26 26 27 27 27 26 26 25 25 25 25 24 23 24 24 23 24 24 24 23 22 21 22 22 22 22 22 22 22 22 22 22 21 21 22 23 22 22 23 23 23 23 23 22 23 23 24 24 24 24 24 25 25 24 25 25 24 23 24 24 24 25 26 26 25 26 26 27 28 27 27 27 26 25 24 21 18 17 17
26 26 26 26 26 26 26 26 27 27 27 27 27 26 26 25 25 25 25 24 24 24 24 24 23 24 24 23 23 23 23 23 23 24 24 23 24 24 24 23 22 22 23 23 24 24 23 24 24 24 24 23 23 24 25 26 26 26 26 26 27 27 26 27 28 27 26 27 26 25 26 27 27 26 27 28 29 28 27 27 27 26 23 21 18 16 16 17
27 27 27 26 26 27 27 27 27 27 27 27 26 26 25 25 25 25 25 25 26 26 26 26 26 27 27 26 24 24 24 25 25 25 24 24 24 24 25 24 23 24 25 24 24 24 23 23 25 24 24 25 25 25 26 27 27 27 27 27 28 28 28 28 28 28 26 26 26 26 27 27 28 28 29 31 29 27 27 27 27 23 20 18 16 16 17 17
28 28 28 27 27 27 28 28 28 28 28 27 26 25 25 25 25 25 26 27 28 28 29 29 29 29 29 27 26 25 25 26 25 24 24 24 23 24 24 24 24 25 26 25 23 23 23 24 25 26 26 26 26 26 27 27 27 28 27 28 28 28 29 29 29 27 24 23 25 26 27 28 29 30 31 29 26 25 26 25 22 20 18 18 17 17 18 19
29 29 28 28 28 28 28 28 28 29 28 27 26 25 25 25 26 27 28 28 28 28 30 30 31 31 30 29 28 27 26 26 25 24 23 23 23 24 25 24 24 25 25 24 23 23 25 26 26 27 26 26 26 26 27 27 27 28 28 28 28 28 28 28 26 24 22 22 25 26 28 28 30 31 29 25 23 23 22 20 19 18 17 18 18 18 19 18
30 30 30 29 29 29 29 29 29 29 27 26 26 25 26 26 27 27 28 29 30 29 29 30 31 31 30 28 27 27 27 27 26 25 23 23 24 25 25 25 26 26 25 24 24 25 25 26 26 26 26 26 26 26 27 27 27 27 27 27 27 26 26 26 24 23 23 25 27 28 28 28 28 27 24 24 23 20 18 17 18 17 16 16 17 17 18 17
31 31 31 31 30 30 29 29 29 28 27 27 26 26 26 27 27 28 28 30 31 29 28 28 29 29 28 27 27 26 27 27 26 26 24 23 24 25 25 26 27 26 26 26 27 27 27 27 26 25 26 26 26 26 26 26 26 26 25 25 26 26 26 26 25 26 27 28 27 27 27 26 25 23 23 24 22 19 18 17 16 16 16 16 16 17 16 15
33 32 32 31 31 30 30 29 28 27 27 27 26 26 26 27 27 27 28 29 30 29 27 27 27 27 27 26 26 26 26 26 25 24 24 24 25 25 26 27 27 26 26 27 27 28 28 27 25 25 25 25 25 25 24 24 25 25 25 25 25 25 25 26 27 27 27 27 25 24 25 25 24 25 27 25 21 21 20 17 16 16 17 17 17 17 15 13
34 33 33 32 31 30 29 29 27 26 27 26 26 25 26 26 26 26 27 28 29 27 25 24 24 24 23 23 23 22 23 24 23 23 23 24 24 24 24 25 25 25 25 25 25 26 25 24 22 22 23 22 23 24 23 23 24 25 24 23 24 24 25 26 26 26 26 26 26 25 25 27 27 27 27 24 19 21 20 18 17 17 18 18 17 15 13 11
34 34 33 32 31 30 29 28 27 27 27 26 25 25 25 25 25 25 25 26 26 24 21 21 20 20 19 19 19 20 20 20 19 20 21 21 22 22 23 23 22 23 23 23 23 24 23 21 20 21 21 21 22 23 23 22 23 25 24 23 24 24 25 26 26 27 27 28 29 28 26 28 29 27 26 22 18 20 19 17 18 18 18 16 15 13 12 11
35 34 34 33 32 31 30 29 28 27 27 26 26 25 25 25 24 24 23 23 23 20 19 19 18 19 19 19 20 19 19 19 18 18 19 20 20 20 21 22 22 22 21 21 23 23 22 21 21 21 21 22 23 23 22 22 22 24 23 23 23 24 25 26 27 28 28 29 29 26 24 26 28 28 26 22 18 20 19 18 19 19 17 16 14 13 12 12
33 33 33 32 32 32 31 30 29 28 27 27 27 26 25 25 24 23 22 23 22 20 20 20 20 20 20 19 20 19 19 19 19 19 19 20 20 19 20 21 22 23 22 22 23 23 22 22 22 22 22 23 22 22 22 22 22 23 24 24 24 25 26 26 27 28 27 28 28 26 24 25 28 28 25 21 20 21 20 20 20 19 17 16 15 13 13 14
32 32 31 30 30 30 30 30 30 29 28 28 27 26 25 25 24 22 23 23 22 21 21 21 21 21 21 21 21 21 20 20 20 20 20 20 20 20 20 20 21 23 23 23 24 24 23 22 22 23 23 22 21 21 22 22 22 24 25 25 27 27 27 26 27 26 25 27 28 28 26 25 26 26 21 20 21 22 21 22 22 20 17 16 16 15 15 16
30 30 30 29 29 29 28 28 29 29 28 27 26 26 25 24 24 24 24 24 23 23 23 23 22 21 22 22 21 22 22 21 20 21 21 21 21 21 22 21 21 22 23 23 24 24 23 22 23 23 23 22 21 22 23 23 23 24 25 26 27 27 25 25 25 24 24 26 28 27 25 25 25 25 23 22 23 23 24 24 22 21 19 18 18 18 18 20
29 28 28 29 29 28 28 28 28 27 27 26 25 25 24 24 25 26 25 24 22 23 23 22 22 22 22 22 21 22 22 21 21 22 22 22 22 22 22 22 21 22 22 22 23 24 24 24 24 24 24 24 23 24 25 25 24 23 24 24 25 25 24 24 24 23 24 25 25 24 23 25 27 28 28 26 26 27 26 24 23 21 21 21 21 21 21 22
28 28 28 28 28 28 28 28 27 26 26 26 25 25 25 26 27 27 26 25 22 22 22 21 22 23 23 23 22 22 22 22 22 22 22 22 22 23 23 24 24 23 23 23 23 25 25 25 24 24 25 24 23 23 24 25 24 23 24 23 23 24 24 25 25 24 25 25 25 24 24 26 28 29 28 26 26 27 25 23 23 22 22 23 24 24 24 25
28 28 28 28 28 28 28 27 27 26 26 25 24 24 26 28 27 25 26 27 25 23 23 22 22 23 24 24 23 22 22 23 23 23 23 24 24 25 25 25 25 24 23 24 24 24 25 25 25 24 24 24 24 24 24 24 25 26 26 25 25 25 25 26 26 26 27 27 27 27 26 27 27 27 26 24 24 25 24 24 24 25 25 25 26 26 26 28
27 27 27 27 28 28 27 26 26 25 25 24 22 24 27 27 25 24 25 26 25 23 23 23 22 23 24 24 24 23 23 23 23 23 24 25 25 26 25 25 24 24 23 24 25 24 25 27 26 25 25 25 26 26 25 25 26 27 27 26 27 27 26 27 28 28 28 28 30 29 29 30 29 28 28 28 27 27 27 27 27 27 28 27 27 27 28 29
27 27 27 27 28 28 27 26 26 25 25 24 24 27 29 28 26 25 25 25 24 23 23 23 24 24 25 25 24 24 24 24 24 24 25 26 27 27 26 25 25 25 25 25 26 26 27 28 27 26 27 26 26 27 26 26 26 26 27 27 28 27 27 28 29 30 29 29 31 31 32 33 31 29 31 30 29 29 29 28 27 27 27 27 27 28 29 30
28 28 28 28 28 28 28 27 26 26 26 25 27 29 29 28 28 26 25 24 24 24 23 24 24 24 24 24 24 23 23 23 24 24 25 25 26 26 25 25 25 26 26 26 27 28 28 30 30 29 29 29 29 29 29 29 28 28 29 30 29 28 28 28 28 28 28 29 30 32 34 34 32 30 31 30 28 28 28 27 27 26 26 27 29 30 30 30
29 29 30 30 30 29 28 27 27 27 27 27 30 31 29 28 28 27 26 25 24 24 24 25 25 23 24 24 23 22 23 24 23 24 25 26 26 26 26 26 26 27 27 26 27 28 29 31 32 31 30 30 30 30 31 30 29 29 30 30 29 28 28 28 26 26 28 29 29 30 32 33 32 31 30 29 28 27 27 27 27 27 28 29 30 31 30 30
29 29 30 30 30 29 28 27 26 26 28 29 31 31 29 28 28 28 26 26 26 25 26 27 26 25 25 25 24 23 24 25 25 26 27 27 27 27 26 27 28 28 28 27 28 28 28 29 30 30 29 29 29 30 30 30 29 28 29 29 28 28 28 28 28 27 28 30 30 30 30 31 31 31 30 29 28 26 27 27 28 29 29 30 31 31 31 31
29 29 29 29 29 29 28 27 27 28 29 31 31 30 29 29 30 30 28 27 28 28 28 28 27 27 28 27 27 27 27 28 28 29 29 29 28 28 27 28 29 29 29 28 28 28 28 29 30 30 30 30 30 29 28 29 28 28 28 28 28 27 28 28 29 30 29 30 29 30 30 30 30 31 31 30 28 28 28 29 29 29 29 30 30 31 32 33
30 30 31 30 30 30 30 29 30 31 32 33 33 32 31 31 31 30 30 29 29 29 29 29 29 30 30 30 31 30 30 31 31 31 32 32 31 30 30 30 30 30 29 29 29 29 29 29 30 31 31 31 31 30 28 29 29 28 27 27 27 27 28 28 30 31 31 30 30 31 32 31 31 32 31 30 30 30 29 28 29 29 29 31 32 33 34 35
32 32 32 32 32 32 32 32 33 33 34 35 35 33 33 33 32 31 31 31 31 31 31 31 32 33 33 33 33 33 32 32 32 32 33 33 33 32 31 31 30 30 30 30 30 30 29 29 30 32 33 34 35 34 32 32 32 31 30 30 30 30 29 30 31 31 32 32 33 33 33 33 33 33 31 30 30 30 29 29 30 31 32 33 34 35 36 37
34 34 33 33 35 34 33 34 35 35 36 36 35 35 35 34 34 34 33 33 33 34 34 34 34 35 35 35 34 34 34 33 33 34 33 33 32 31 31 31 31 30 31 31 31 30 30 30 30 32 33 34 35 34 32 31 31 31 31 31 31 31 31 31 32 32 32 33 34 34 33 32 32 32 31 30 29 30 30 31 31 32 33 34 35 36 37 38
34 33 33 34 36 36 36 36 36 37 37 36 37 38 38 37 37 36 36 35 35 35 35 35 35 35 35 34 34 34 34 33 34 34 33 33 31 30 30 30 31 31 31 31 31 30 30 29 28 29 30 31 32 31 30 30 29 29 30 30 30 31 32 32 32 31 30 32 34 32 31 32 32 32 31 30 31 31 32 33 33 34 36 37 38 39 40 41
33 34 34 35 36 38 38 37 37 38 38 38 39 39 39 38 38 38 38 37 36 36 36 35 35 35 35 34 34 34 34 33 33 32 32 31 31 30 30 30 30 30 30 30 30 30 31 30 30 30 30 31 32 31 29 29 29 29 30 31 31 31 33 32 32 32 32 32 31 31 33 34 34 34 34 33 33 34 35 35 36 37 39 40 40 40 41 42
36 36 35 35 37 40 40 39 38 38 38 38 39 39 40 39 38 38 38 38 38 38 37 36 35 35 34 34 34 34 34 34 33 32 32 31 31 31 30 29 29 29 30 30 30 31 32 33 33 33 33 34 35 34 33 33 33 34 34 35 36 36 36 35 36 37 36 34 35 37 39 39 38 39 39 36 35 36 37 38 40 40 41 41 41 41 42 42
38 38 37 36 37 39 40 40 39 38 37 38 37 37 39 39 38 37 38 37 37 37 36 36 36 35 35 34 34 34 35 34 33 34 33 32 31 31 30 30 29 30 30 31 31 31 32 34 35 34 35 36 37 37 37 36 36 36 37 38 39 38 38 38 39 40 37 35 38 41 41 41 41 41 41 40 38 39 41 42 42 42 42 42 41 42 43 44
38 38 38 37 37 38 38 39 39 38 38 37 37 36 38 38 37 37 36 35 35 35 35 35 36 36 36 35 34 34 34 33 33 33 33 32 31 31 31 30 30 31 31 32 32 32 32 34 36 35 36 37 37 37 37 36 36 37 38 39 40 41 41 42 42 40 37 38 40 42 43 44 43 43 43 43 43 43 43 42 40 40 40 41 41 42 43 44
38 38 38 37 37 37 37 37 37 37 38 37 37 37 37 37 36 35 34 34 34 35 35 35 35 35 34 35 34 34 33 33 32 32 31 31 31 31 32 31 31 32 32 31 32 32 32 34 35 34 36 37 37 37 36 36 37 39 40 41 42 43 44 43 42 41 40 41 43 43 45 45 45 45 44 43 42 41 40 40 39 39 39 40 41 43 44 45
38 38 37 37 37 36 35 36 36 36 37 37 37 38 37 37 37 34 33 33 34 34 35 35 35 33 32 32 33 33 33 32 32 32 31 31 31 32 32 32 32 32 32 32 33 33 32 33 33 32 35 37 38 37 36 35 37 39 41 42 43 43 43 42 42 42 41 43 44 44 45 46 44 43 41 40 39 39 39 39 40 40 40 41 42 43 44 45
38 37 37 37 37 36 35 35 36 36 37 37 38 37 36 37 37 34 33 33 34 34 34 34 33 32 31 32 32 32 32 31 31 32 31 31 32 32 32 32 31 32 33 33 33 33 33 34 34 33 35 38 39 38 36 36 37 39 43 45 44 43 42 42 41 41 41 43 44 43 44 44 41 39 38 38 38 38 39 40 40 41 41 41 42 44 45 45
38 38 37 37 37 37 36 35 36 37 37 37 37 37 36 36 36 35 34 33 32 32 32 32 31 31 32 32 32 31 31 30 30 31 31 32 32 32 33 33 33 33 34 34 34 34 34 34 34 33 34 37 38 36 34 34 35 39 42 43 41 41 41 42 41 41 42 42 42 43 43 41 39 37 37 38 39 39 40 40 41 42 42 43 44 45 45 45
Wind_Direction
264 265 267 268 269 271 272 274 275 276 278 279 280 281 281 282 282 282 282 282 283 284 285 287 288 290 291 292 294 295 295 293 292 288 285 286 284 283 285 285 283 278 278 282 283 284 285 285 284 285 288 290 290 291 291 291 292 294 296 293 293 294 295 301 300 299 300 301 302 300 302 304 305 307 306 306 302 297 296 294 296 296 291 288 287 289 289 287
265 266 267 269 270 271 272 274 275 276 277 278 279 280 280 281 281 281 282 282 283 283 284 286 287 288 290 291 292 294 294 291 290 287 285 284 278 278 282 281 280 278 279 282 281 282 284 285 282 283 286 287 287 288 288 289 288 289 293 292 292 293 295 299 297 297 300 299 301 301 303 305 305 307 306 304 300 298 297 296 298 297 293 290 287 286 285 283
265 266 267 268 269 270 272 273 274 275 276 277 278 279 279 280 280 281 281 282 282 283 284 285 286 288 289 290 292 293 292 290 288 286 285 282 274 277 282 282 280 278 279 282 281 281 284 287 285 283 284 286 286 286 286 287 287 286 287 290 291 293 295 296 296 297 297 298 300 301 303 304 303 302 301 300 298 295 294 295 297 296 295 297 296 293 288 284
264 265 266 267 268 269 271 273 274 275 276 277 278 278 279 279 280 280 281 281 282 283 283 285 285 287 288 289 291 291 291 289 285 283 281 278 276 280 283 284 281 277 279 282 283 281 282 286 286 283 285 287 285 284 285 284 286 286 285 289 292 295 296 295 296 296 297 300 301 301 302 301 299 298 297 298 298 294 291 292 293 294 296 298 299 298 294 290
264 265 266 267 268 269 271 272 273 275 276 277 278 278 279 280 280 281 281 281 282 282 283 284 285 286 286 288 288 288 290 286 281 279 277 277 279 281 283 283 280 277 277 282 283 281 281 282 283 284 285 286 286 285 284 280 283 288 287 287 290 293 294 294 294 295 298 300 299 298 299 298 298 297 296 295 293 291 291 291 291 292 293 294 295 295 293 291
264 265 267 268 268 270 271 272 273 274 276 277 278 278 279 280 280 280 281 281 281 282 283 283 284 284 285 286 285 285 285 281 280 279 277 278 280 282 282 281 279 275 276 280 281 280 281 281 281 282 283 284 285 285 285 281 279 284 287 287 289 290 291 292 293 295 299 298 296 296 297 298 298 296 294 292 289 289 290 291 290 289 289 290 291 291 290 288
264 265 267 268 268 270 271 272 273 275 276 276 277 278 279 279 279 280 280 280 281 281 281 282 282 283 284 283 281 281 279 278 280 278 275 278 280 281 281 280 278 274 274 277 278 279 280 280 280 282 283 285 285 284 286 285 281 282 287 289 290 289 289 290 291 294 296 294 293 294 296 296 295 295 294 292 290 289 290 289 289 288 288 288 288 287 286 286
263 265 266 267 268 270 271 272 273 274 275 276 277 277 278 279 279 279 279 280 280 280 280 280 281 281 282 280 279 280 276 277 279 276 275 277 278 279 279 278 276 273 273 275 276 278 280 281 281 282 284 284 286 287 289 290 286 283 287 289 289 289 291 292 293 292 292 292 292 293 293 292 292 293 294 293 291 290 289 289 287 287 287 287 286 286 286 285
262 265 266 266 268 269 270 271 272 273 274 275 276 277 278 278 278 279 279 279 279 279 279 279 280 280 280 278 279 279 277 277 277 274 275 276 276 276 276 276 274 272 274 276 277 278 280 281 282 284 287 287 288 289 289 288 287 287 290 292 292 292 293 294 293 291 291 291 291 291 290 290 292 295 295 293 291 290 290 289 287 287 287 286 286 286 286 286
263 264 265 266 267 268 269 271 272 273 274 275 276 277 278 278 279 279 279 279 279 279 279 278 278 278 277 276 276 277 278 277 275 275 275 275 276 275 274 275 274 273 275 277 277 278 279 281 283 287 289 289 288 287 286 285 287 292 293 294 293 291 291 290 289 289 289 289 287 288 289 290 292 297 297 294 292 293 293 291 289 288 287 286 286 287 287 286
263 264 265 266 267 268 269 271 272 273 274 275 276 277 278 279 279 279 279 279 279 279 278 277 277 276 275 274 272 274 277 276 275 276 275 276 276 274 274 275 275 274 275 276 277 278 280 282 285 286 286 288 288 287 286 287 290 294 295 293 291 289 288 286 286 286 287 288 286 286 290 292 294 294 292 291 293 294 293 292 291 289 288 288 288 289 289 287
263 264 265 266 267 268 269 271 272 273 275 276 277 278 278 279 279 279 279 279 279 278 277 276 275 274 275 273 270 272 276 275 275 276 276 277 276 275 275 276 276 275 275 277 278 280 281 282 284 282 283 286 288 287 287 291 292 292 294 291 289 289 287 286 286 284 285 288 288 290 293 294 294 292 289 290 293 294 292 292 292 291 291 290 290 291 290 289
262 263 264 265 266 267 269 270 272 274 275 276 277 278 278 279 279 279 278 278 278 277 276 275 273 273 274 273 272 273 274 274 274 275 276 276 276 277 276 276 276 275 276 277 278 280 280 281 281 280 282 285 287 286 287 289 289 288 289 288 290 291 290 289 287 285 286 287 289 293 292 292 295 295 295 296 298 297 295 294 293 291 291 291 291 291 290 289
262 262 263 264 265 266 268 270 272 274 275 276 277 277 278 278 278 277 277 277 276 275 275 273 272 272 272 273 275 274 273 274 273 274 275 275 275 276 276 276 275 275 275 276 277 279 279 281 281 281 282 282 284 287 289 288 286 287 288 287 290 292 292 292 289 287 291 289 287 291 290 292 297 298 299 301 302 301 298 295 293 291 290 290 291 291 290 290
261 262 263 264 265 266 268 270 272 274 275 276 277 277 278 277 276 276 277 276 275 274 273 272 271 272 273 274 275 274 273 273 272 273 275 274 275 276 276 275 275 275 275 276 276 277 279 280 280 281 282 282 283 286 288 287 286 287 287 287 288 288 290 293 289 284 288 290 287 288 290 291 295 298 301 301 299 298 295 293 291 290 290 291 292 292 291 291
260 262 263 264 265 266 268 270 272 274 275 276 277 277 277 276 275 276 276 275 274 272 272 272 270 271 274 274 273 273 273 272 272 273 275 274 275 276 276 276 276 275 275 275 276 276 278 278 279 281 282 283 283 284 287 286 286 287 285 286 287 286 289 293 291 285 287 293 289 286 290 292 295 297 297 296 296 294 292 291 290 290 291 291 290 290 290 291
260 262 263 264 265 267 268 270 272 273 275 276 277 277 276 274 274 275 275 274 272 272 272 273 272 272 274 274 273 272 272 273 272 273 274 274 275 275 275 276 276 275 275 275 275 275 275 276 278 281 280 282 284 284 284 283 285 286 285 285 286 287 289 291 292 291 290 290 287 286 288 291 293 293 293 296 297 295 293 292 292 293 293 291 290 291 292 292
261 262 263 265 266 268 269 270 272 274 275 277 277 276 275 274 273 274 274 272 272 272 273 272 272 273 274 273 273 272 272 272 272 273 273 273 273 273 273 275 275 274 273 274 274 273 275 277 278 280 280 280 282 280 278 280 283 285 285 286 287 288 289 288 290 293 292 289 287 287 288 290 292 294 296 297 296 294 293 293 294 295 293 292 293 294 296 296
261 262 264 265 266 268 269 271 272 274 276 278 277 276 275 273 273 273 272 271 271 272 274 271 268 273 277 275 273 273 272 272 272 273 273 272 272 272 273 273 273 271 272 274 273 271 274 278 277 278 279 279 279 276 276 279 282 284 284 285 287 288 288 287 289 291 292 290 289 288 289 291 293 295 297 296 294 293 294 294 294 294 292 292 295 296 299 301
261 262 264 265 266 268 269 271 273 275 277 277 277 276 275 274 274 273 272 271 270 271 274 273 269 271 277 276 274 273 273 272 272 273 272 271 271 271 271 271 271 272 273 275 274 272 273 276 276 277 277 277 277 277 277 279 281 283 284 285 286 287 288 289 290 291 292 290 289 290 291 292 294 295 295 295 294 294 294 295 295 295 294 295 296 296 299 300
261 262 264 265 267 268 269 272 273 275 276 276 276 276 274 275 275 274 275 274 271 271 273 273 271 272 274 275 273 273 274 273 272 271 271 270 269 269 269 269 271 273 273 273 276 279 277 275 277 278 277 276 278 279 280 281 283 284 285 286 286 287 288 290 290 291 292 289 288 291 292 292 295 295 295 294 293 294 297 299 301 303 301 297 295 295 296 296
261 262 264 266 267 268 270 271 273 275 276 274 274 274 274 275 274 275 277 275 273 273 272 272 272 272 272 273 272 273 274 273 272 270 269 268 267 269 269 268 271 274 273 273 277 279 277 277 277 276 277 279 279 280 281 281 282 284 284 285 285 286 288 289 289 289 290 289 289 292 292 293 296 295 295 293 292 297 303 306 308 306 302 299 297 297 296 296
262 263 264 266 267 269 270 271 273 274 274 273 273 274 274 275 275 276 276 276 275 273 272 271 271 271 271 272 272 273 272 273 272 269 267 265 265 267 269 269 272 274 273 272 274 275 275 277 276 274 277 280 280 280 280 280 280 281 282 283 284 285 287 286 288 289 290 290 290 291 291 293 295 294 295 293 293 301 308 311 310 305 302 302 301 300 298 297
262 263 264 266 267 269 270 271 271 271 271 272 272 273 274 275 275 276 276 276 276 274 272 271 271 271 272 272 273 273 271 272 272 270 265 263 266 267 268 270 272 273 272 270 271 273 273 277 279 276 277 278 278 279 280 279 279 279 279 279 281 284 284 284 288 290 290 290 289 291 292 292 293 295 297 296 296 301 305 311 311 306 306 306 305 305 301 296
262 263 265 266 267 268 269 270 269 269 269 270 271 272 274 275 275 277 278 277 276 276 274 272 271 272 272 272 273 273 272 271 272 270 266 265 267 269 269 269 270 272 272 270 270 271 274 277 279 277 276 278 278 278 278 277 279 279 278 279 281 284 284 285 289 290 291 290 289 292 294 291 291 295 297 296 293 294 299 305 304 304 307 308 308 305 297 291
261 262 264 264 265 266 268 268 267 268 268 268 270 272 273 274 275 277 279 278 277 277 275 272 271 271 271 272 272 272 272 272 272 270 267 267 267 269 271 269 269 272 272 272 272 272 273 277 280 278 275 275 275 277 277 276 277 278 278 282 284 284 285 286 288 288 287 287 287 289 291 289 290 293 294 293 289 289 294 297 296 300 306 306 307 301 290 284
259 261 263 263 263 263 265 265 265 266 266 267 269 270 272 273 274 276 278 277 276 275 273 272 270 270 271 273 271 271 273 271 272 271 269 268 267 268 270 269 269 271 272 273 273 274 273 275 280 278 274 273 273 276 277 274 275 278 280 285 286 286 286 285 286 284 284 286 286 285 285 286 288 291 292 288 284 286 290 291 291 299 305 305 305 297 286 282
260 261 262 261 260 260 262 263 263 264 264 265 266 268 271 271 272 275 276 274 273 272 270 270 271 273 274 273 270 271 271 269 271 273 270 268 269 269 269 269 271 272 270 269 271 275 276 274 275 274 273 274 274 278 280 275 275 279 281 284 285 284 284 283 283 283 285 287 286 283 282 285 287 290 291 284 279 282 283 284 288 296 304 303 300 292 282 280
259 260 261 260 258 259 260 261 261 262 262 263 265 267 268 268 270 272 270 268 270 271 270 270 273 274 273 271 269 268 268 268 270 271 269 268 268 270 271 271 274 275 271 269 270 275 277 275 276 274 274 275 276 280 283 279 277 279 281 283 283 282 281 282 282 283 285 284 283 282 280 283 288 290 288 281 277 278 280 284 289 294 300 299 294 286 277 276
258 258 259 258 258 259 259 260 259 259 260 261 263 265 266 266 267 266 263 263 268 271 271 272 273 271 268 269 269 266 267 269 269 268 269 269 267 268 271 272 274 276 275 274 274 275 276 277 279 276 275 277 278 281 284 282 280 282 283 284 284 283 282 282 281 282 284 282 282 282 275 276 287 290 286 283 278 275 279 285 287 289 293 292 287 281 274 275
256 257 257 256 257 258 258 258 258 257 257 259 261 262 263 264 263 260 261 265 269 270 270 271 272 269 267 269 269 267 268 269 267 266 268 269 268 269 272 274 275 277 278 279 277 275 275 276 278 277 276 277 279 281 283 283 283 284 284 286 287 287 284 283 282 282 282 282 284 286 277 270 277 283 285 289 286 279 280 282 282 285 288 286 283 279 274 275
255 255 254 254 255 256 256 257 257 255 254 256 258 260 260 261 260 259 263 268 270 270 270 270 271 268 267 269 269 268 270 269 268 269 270 270 269 268 269 271 274 276 276 277 278 278 276 274 275 277 279 278 279 282 283 284 284 283 283 284 286 287 285 282 282 281 280 280 283 288 286 275 274 280 284 288 289 286 285 283 280 281 283 281 279 277 276 276
253 253 253 252 253 254 254 255 255 253 253 254 256 258 257 259 261 261 261 265 268 270 272 273 273 270 268 269 269 270 271 270 269 271 273 272 272 271 268 268 272 275 275 277 280 280 279 278 275 277 280 278 276 279 281 282 281 278 279 280 279 282 283 281 280 280 279 280 282 286 288 281 278 282 285 286 287 288 288 285 282 280 280 278 277 277 278 277
252 253 253 253 254 254 253 253 253 252 252 252 254 255 255 258 264 265 262 263 266 269 271 273 274 273 270 268 268 268 270 270 269 271 273 272 272 273 272 270 271 273 275 278 279 277 277 279 276 276 279 275 273 277 279 281 279 276 278 278 276 277 278 279 281 281 280 281 282 283 283 280 280 283 284 285 286 288 288 286 284 283 281 280 278 278 278 278
252 253 253 253 254 254 253 251 251 251 250 250 252 252 254 259 265 266 265 265 266 266 269 271 271 270 269 267 266 267 269 270 270 271 272 271 272 273 274 273 271 273 276 276 277 277 276 277 277 278 279 276 276 279 282 284 283 281 282 281 278 277 277 279 280 280 282 283 282 280 279 280 283 284 283 284 285 286 286 285 284 282 281 280 280 279 279 279
253 254 254 255 254 254 252 250 250 250 249 250 252 253 255 260 263 265 267 267 266 265 266 268 268 267 267 267 265 266 269 271 271 272 272 271 273 273 273 274 272 271 273 274 276 278 277 277 278 279 279 277 278 281 283 283 283 284 283 280 280 280 280 279 280 280 280 279 278 279 279 282 284 283 283 284 284 284 284 283 281 279 279 279 279 279 278 279
254 256 256 257 256 254 252 250 248 248 248 250 252 255 257 259 260 262 266 267 266 266 264 265 266 266 265 267 266 265 269 272 272 273 273 273 275 274 273 275 276 272 273 276 277 277 277 278 277 277 278 279 279 281 282 281 281 281 280 280 281 282 281 278 279 280 278 277 278 277 278 280 281 281 281 281 282 282 281 279 278 277 277 277 277 276 277 278
255 256 257 257 255 252 250 247 246 246 248 250 252 255 258 258 258 260 263 265 265 266 264 263 265 265 264 265 266 265 268 271 271 272 274 273 274 274 273 275 278 278 277 278 277 277 278 279 278 279 279 279 280 281 281 281 281 279 278 280 280 279 279 277 276 278 277 278 279 277 275 277 278 279 281 279 279 279 277 276 276 276 276 276 275 275 276 277
255 256 257 255 251 248 246 245 246 249 251 252 253 255 257 259 260 261 263 265 266 266 265 265 265 265 264 264 265 266 267 269 270 271 273 273 274 275 275 276 277 279 280 278 276 277 278 278 279 280 280 279 281 280 279 280 282 280 279 279 276 274 276 275 275 277 277 278 280 278 276 277 279 280 281 279 278 276 275 276 277 276 275 274 274 274 275 276
253 254 255 253 249 246 245 246 248 251 253 253 254 256 258 260 262 261 261 262 264 265 265 265 263 262 263 264 265 266 268 270 270 270 271 272 274 277 278 279 278 278 280 279 277 277 278 276 276 278 279 279 280 278 278 279 280 281 280 278 277 276 277 277 276 276 276 278 280 279 278 278 280 282 282 280 280 279 279 279 279 277 275 274 274 274 275 277
252 254 255 253 249 245 245 249 251 253 255 255 256 257 260 262 263 262 260 260 261 263 263 263 262 262 263 264 265 267 269 271 270 270 270 270 272 274 277 278 278 278 279 279 278 278 278 275 276 277 278 277 277 278 279 279 278 278 278 277 277 277 278 279 278 276 275 276 277 278 278 278 279 281 281 281 282 282 280 278 277 275 274 274 274 275 276 277
252 255 256 252 248 245 246 252 254 254 255 256 256 257 259 261 262 260 259 259 260 261 262 262 262 263 264 265 266 268 270 270 269 269 270 270 271 273 273 274 276 277 278 278 278 279 279 277 277 277 277 277 277 279 280 280 278 276 275 276 277 276 275 276 278 279 278 277 277 277 277 278 279 280 280 279 280 279 277 276 276 275 274 274 275 276 277 278
253 255 256 252 247 244 248 255 256 255 257 257 257 257 257 258 260 259 258 259 261 262 262 263 263 263 265 266 267 268 269 269 269 269 271 271 272 272 271 271 274 274 275 276 276 278 278 277 277 277 278 278 279 279 281 283 281 277 276 277 276 276 275 274 276 279 279 278 278 278 277 278 279 280 280 279 279 278 276 276 275 274 274 275 276 278 279 280
254 255 256 253 248 246 251 257 257 256 257 258 257 257 257 258 259 259 260 260 261 262 264 265 264 265 266 267 268 268 268 269 271 271 271 271 271 273 273 274 274 274 274 274 274 275 276 275 275 278 280 280 280 280 281 282 281 278 277 277 276 276 277 277 277 278 278 276 275 276 277 278 279 280 279 279 279 278 276 275 274 274 275 276 278 279 279 280
255 256 257 255 250 250 255 259 259 258 257 256 257 257 257 259 259 259 261 261 261 263 264 265 266 267 268 268 268 269 268 269 270 271 272 271 270 272 274 275 274 273 274 274 274 273 273 273 274 276 277 277 278 278 278 280 280 278 277 276 276 277 278 279 280 278 277 277 276 276 277 279 280 280 279 279 279 278 277 276 275 275 275 276 278 279 279 280
257 258 258 257 254 254 258 260 260 259 258 256 257 257 257 259 260 260 260 262 262 262 264 266 267 268 269 267 267 268 268 268 268 269 271 271 270 271 272 273 273 272 272 274 275 274 273 273 273 272 272 273 275 277 278 279 279 278 278 277 277 277 277 278 278 276 278 280 278 276 278 280 280 280 281 281 279 278 278 277 276 276 277 278 278 279 279 280
258 259 258 257 256 257 258 259 258 259 259 257 258 258 257 258 260 260 260 262 263 263 264 265 265 266 267 266 266 267 266 266 266 267 268 269 269 270 270 271 272 271 271 272 273 273 273 273 273 272 272 273 275 277 278 278 278 277 278 277 277 277 277 276 276 276 279 281 278 278 280 280 280 280 282 282 280 279 280 279 278 278 279 279 280 280 280 281
257 260 258 256 256 257 257 258 256 257 258 258 258 259 258 257 258 260 260 261 263 264 264 263 262 262 264 264 265 266 266 266 266 267 268 268 269 270 270 271 272 271 271 273 273 273 273 273 274 274 274 274 275 276 277 277 277 277 277 277 277 277 276 276 276 277 278 278 278 280 281 280 280 281 282 282 282 282 282 282 281 281 280 280 280 280 280 280
256 259 258 256 257 258 257 257 255 254 256 257 257 258 259 258 258 260 261 261 262 263 262 262 262 262 263 264 264 265 265 265 266 267 268 268 270 270 270 272 272 271 271 273 274 274 274 275 276 276 276 276 276 277 278 277 277 277 276 276 277 277 277 277 278 278 278 277 279 281 280 279 281 282 282 283 283 283 283 283 282 281 280 279 280 280 280 281
255 257 257 257 258 259 259 257 254 254 255 255 256 258 259 259 259 260 261 260 261 261 261 261 263 264 265 264 263 263 264 264 265 266 267 268 270 270 269 271 271 271 273 274 274 275 275 276 276 277 278 277 277 278 278 277 276 277 276 276 277 277 278 278 278 279 279 279 280 280 280 281 282 283 283 283 283 283 283 282 282 281 280 280 281 281 282 283
255 256 257 258 257 257 258 258 255 255 255 255 256 258 258 258 258 259 261 261 261 262 262 261 262 264 265 263 262 264 264 263 264 265 266 266 268 269 270 271 271 272 273 274 275 276 276 276 278 278 278 277 278 279 278 277 278 277 276 277 277 278 278 278 278 279 279 280 281 281 281 282 283 284 283 282 282 283 282 282 283 283 282 282 282 283 284 284
254 254 255 257 257 255 255 257 255 254 256 256 257 258 258 258 258 258 259 261 262 263 263 261 262 263 263 262 263 264 265 264 265 266 266 267 268 268 270 271 271 272 273 273 275 276 275 276 277 277 277 278 279 280 280 280 278 276 276 278 279 278 278 279 279 278 278 280 281 281 281 283 283 282 282 282 283 283 283 284 284 284 283 283 282 283 284 284